This is the latest recevied weather packets stored in our database for station/object EB1BWO-10. If no packets are shown the sender has not sent any weather packets the latest 10 day(s).
| Time | Temp. | Humidity | Pressure | Rain* | Wind** | Luminosity | Snow |
|---|---|---|---|---|---|---|---|
| 1777658269 | 13.89° C | 93% | 952.8 hPa | - | - | - | - |
| 1777657368 | 13.89° C | 95% | 952.7 hPa | - | - | - | - |
| 1777656469 | 14.44° C | 92% | 952.8 hPa | - | - | - | - |
| 1777655568 | 14.44° C | 92% | 953 hPa | - | - | - | - |
| 1777654667 | 14.44° C | 91% | 952.8 hPa | - | - | - | - |
| 1777653767 | 14.44° C | 89% | 952.6 hPa | - | - | - | - |
| 1777652868 | 14.44° C | 92% | 952.6 hPa | - | - | - | - |
| 1777651967 | 14.44° C | 92% | 952.8 hPa | - | - | - | - |
| 1777651067 | 15° C | 88% | 952.6 hPa | - | - | - | - |
| 1777650167 | 15° C | 89% | 952.6 hPa | - | - | - | - |
| 1777649267 | 15° C | 88% | 952.8 hPa | - | - | - | - |
| 1777648367 | 16.11° C | 85% | 952.8 hPa | - | - | - | - |
| 1777647467 | 15.56° C | 86% | 953 hPa | - | - | - | - |
| 1777646567 | 15.56° C | 87% | 953.1 hPa | - | - | - | - |
| 1777645667 | 15° C | 86% | 953.1 hPa | - | - | - | - |
| 1777644767 | 15.56° C | 84% | 953.3 hPa | - | - | - | - |
| 1777643867 | 15.56° C | 85% | 953.2 hPa | - | - | - | - |
| 1777642966 | 16.67° C | 80% | 953.2 hPa | - | - | - | - |
| 1777642066 | 16.67° C | 80% | 952 hPa | - | - | - | - |
| 1777641166 | 18.33° C | 77% | 953.1 hPa | - | - | - | - |
| 1777639367 | 18.33° C | 76% | 953.2 hPa | - | - | - | - |
| 1777638467 | 17.78° C | 80% | 953.2 hPa | - | - | - | - |
| 1777637567 | 17.78° C | 80% | 953.4 hPa | - | - | - | - |
| 1777636667 | 17.22° C | 81% | 953.4 hPa | - | - | - | - |
| 1777635767 | 18.33° C | 75% | 953.6 hPa | - | - | - | - |
* Rain since midnight (hover to see other rain measurements)
** Current wind speed in m/s (hover to see current wind gust speed)